weather.gov     
National Weather Service

Regional Weather Roundup
NWS Homepage
This page is being discontinued on March 12, 2014.
The same data is available at this site. Please update your bookmarks.
Thank you, and we apologize for the inconvenience.
Please send an email to SR-SRH.Webmaster@noaa.gov with any concerns.


Current Version
Previous Version:    01  02  03  04  05  06  07  08  09  10  11  12  13  14  15  16  17  18  19  20  21  22  23  24  25  26  27  
[Printable]
663
ASUS45 KREV 211510
RWRNV
NEVADA REGIONAL WEATHER ROUNDUP
NATIONAL WEATHER SERVICE RENO NV
800 AM PDT TUE OCT 21 2014

NOTE: "FAIR" INDICATES FEW OR NO CLOUDS BELOW 12,000 FEET WITH NO
SIGNIFICANT WEATHER AND/OR OBSTRUCTIONS TO VISIBILITY.

NVZ001-003-004-211600-
WESTERN NEVADA

CITY           SKY/WX    TMP DP  RH WIND       PRES   REMARKS
RENO           PTCLDY    40  29  64 CALM      30.13R
CARSON CITY    FAIR      41  23  48 CALM      30.11R
MINDEN         FAIR      34  14  44 E3        30.11
SLIDE MTN        N/A     28   9  43 W17         N/A
PYRAMID LAKE     N/A     45 N/A N/A W8          N/A
FALLON         PTCLDY    41  27  57 CALM      30.11R
LOVELOCK       CLEAR     41  27  57 E3        30.10R
HAWTHORNE      CLEAR     48  30  49 CALM      30.10R
$$

NVZ002-CAZ072-073-211600-
NORTHERN AND CENTRAL SIERRA

CITY           SKY/WX    TMP DP  RH WIND       PRES   REMARKS
S. LAKE TAHOE  CLEAR     34  24  67 CALM      30.11R
TRUCKEE        PTCLDY    23  21  93 SW3       30.14R
SQUAW VLY 8000 NOT AVBL
BLUE CANYON    CLEAR     41  23  48 E3        30.12S
MAMMOTH LAKES  FAIR      34  23  64 N5        30.12R
$$

NVZ030-031-036-211600-
NORTHERN NEVADA

CITY           SKY/WX    TMP DP  RH WIND       PRES   REMARKS
ELKO           PTCLDY    42  31  64 W7        30.07R
WINNEMUCCA     NOT AVBL
WENDOVER       SUNNY     57  34  41 N12       29.95R
$$

NVZ035-037-211600-
CENTRAL NEVADA

CITY           SKY/WX    TMP DP  RH WIND       PRES   REMARKS
ELY            SUNNY     49  31  49 NW9       30.04R
EUREKA           N/A     45  28  51 CALM      30.09R
$$

NVZ013-014-211600-
SOUTH CENTRAL NEVADA

CITY           SKY/WX    TMP DP  RH WIND       PRES   REMARKS
TONOPAH        CLEAR     46  21  37 CALM      30.05R
$$

NVZ017-020-022-211600-
SOUTHERN NEVADA

CITY           SKY/WX    TMP DP  RH WIND       PRES   REMARKS
LAS VEGAS      MOSUNNY   71  37  28 S12       29.85R
N. LAS VEGAS   SUNNY     70  36  28 SE8       29.87R
NELLIS AFB     SUNNY     71  40  32 NW2       29.88R
HENDERSON      SUNNY     68  37  31 SW13      29.91R
MERCURY        SUNNY     63  34  33 CALM      29.93R
$$




U.S. Dept. of Commerce
NOAA National Weather Service
1325 East West Highway
Silver Spring, MD 20910
E-mail: w-nws.webmaster@noaa.gov
Page last modified: May 16, 2007
NATIONAL WEATHER SERVICE: for Safety, for Work, for Fun - FOR LIFE